OICK  Khoram Abad Airport

Add Bookmark

Iran

Status IATA
Operational KHD
Latitude Longitude
33° 26' 7" N 48° 16' 58" E
33.435398 48.282902
Local (DST + 5) UTC (GMT + 4)
Sep 22, 2014 05:42 Sep 22, 2014 02:12
Sunrise-Sunset Local UTC
Begin Civil Twilight 05:39 02:09
Sunrise 06:03 02:33
Sunset 06:15 14:45
End Civil Twilight 06:39 15:09

Current Weather

METAR Observed VFR
OICK 220050Z 00000KT CAVOK 14/02 Q1013 Mon, Sep 22, 2014 @ 00:50 UTC
(1 Hour, 22 Minutes ago)
Visual Flight Rules
Wind Visibility Clouds Conditions
Calm 10 km or more
  • Clear skies
  • No significant weather
Temperatures Readings Precipitation
Current Temp 14°C (57°F)
Dewpoint 2°C (36°F)
Humidity 44%
Altimeter 29.91"Hg
Sea Level Pressure 1013mb
Field Elevation 3789.37'
None Recorded

Additional weather within a 92.6km radius of OICK

Map ICAO Location
OICJ 67.2km N (040°)

24 Hour Weather History

Loading
-

24 Hour Weather Graphs

Loading
-

CheckWX.com is intended as a tool to help pilots better visualize weather data. It is not intended as a substitute for an official weather briefing obtained from a Flight Service Station. CheckWX.com does not meet the FAA requirements for an official pre-flight weather briefing. Therefore, it's important that pilots still call and obtain an official FSS pre-flight weather briefing.